Location: Unnamed
(53.9021°N, 27.5568°E)
Time: 00:35:18
(UTC+03:00)

STARLINK-73 - Pass Details

Date: 21 January 2020
Orbit: 528 x 531 km, 53.0° (Epoch: 24 February)

Event Time Altitude Azimuth Distance (km) Brightness Sun altitude
Exits shadow 06:20:38 - 175° (S) 1,875 6.4 -24.9°
Reaches altitude 10° 06:21:05 10° 170° (S) 1,773 6.3 -24.8°
Maximum altitude 06:23:18 14° 136° (SE) 1,512 6.4 -24.5°
Drops below altitude 10° 06:25:31 10° 103° (ESE) 1,780 7.2 -24.2°
Sets 06:28:33 0° 79° (ENE) 2,675 8.4 -23.7°
